Location: Helsinki
(60.1699°N, 24.9384°E)
Time: 01:35:17
(UTC+02:00)

ISS - Pass Details

Date: 05 December 2021
Orbit: 413 x 422 km, 51.6° (Epoch: 22 January)

Event Time Altitude Azimuth Distance (km) Brightness Sun altitude
Rises 16:28:26 0° 255° (WSW) 2,387 1.8 -7.6°
Reaches altitude 10° 16:30:59 10° 236° (SW) 1,519 0.9 -7.9°
Maximum altitude 16:33:23 18° 191° (S) 1,113 -1.0 -8.1°
Drops below altitude 10° 16:35:48 10° 145° (SE) 1,514 -1.0 -8.4°
Enters shadow 16:39:54 -5° 121° (ESE) 2,973 0.3 -8.8°
